CAPE
0 0 0 9 10 35 21 0 15 223 0 0 206 502 491 198 153 184 157 19 0 0 0 0 0 0 11 164 32 117 38 183 204 229 681 485 486 213 236 407 685 912 994 1020
0 0 0 1 4 0 15 1 0 0 0 0 3 3 532 450 380 292 276 230 44 0 0 0 0 0 4 30 170 116 525 332 408 56 156 517 432 187 115 413 759 901 1145 812
0 0 0 0 0 0 0 3 0 0 0 0 0 0 92 508 445 372 331 342 285 8 0 0 0 0 0 62 40 362 546 297 428 206 87 256 476 630 544 826 1013 890 1078 885
0 0 0 0 0 0 0 0 0 0 0 0 0 0 0 402 420 362 359 298 329 232 36 29 20 1 0 162 172 303 601 522 503 385 232 266 405 370 475 828 868 1092 645 1027
0 0 0 0 0 0 0 0 0 0 0 0 0 0 0 373 414 305 318 473 316 224 342 42 53 67 93 80 276 381 680 827 395 493 801 363 592 347 409 635 736 628 1043 772
0 0 0 0 0 0 0 0 0 0 0 0 0 0 0 339 457 419 462 404 454 461 383 210 201 361 177 137 251 565 778 1019 577 329 525 887 797 713 613 829 524 880 600 1071
0 0 0 0 0 0 0 0 0 0 0 0 0 0 245 463 436 461 431 286 318 642 181 20 89 719 739 365 159 806 784 1196 1022 980 589 648 939 898 999 1162 674 1280 796 784
0 0 0 0 0 0 0 0 0 0 0 0 0 39 438 532 451 404 307 229 390 359 11 234 326 439 565 639 435 645 952 829 1393 1487 1103 597 1009 1359 1352 698 1483 1596 1134 813
0 0 0 0 0 0 0 0 0 0 0 0 19 135 129 132 112 85 54 1 0 7 74 7 403 424 523 591 323 478 498 1134 1139 1139 1566 1234 1076 1068 1647 1952 1379 1740 1223 1017
0 0 0 0 0 0 0 0 0 0 0 0 7 75 168 161 145 82 39 12 11 27 24 88 104 37 6 12 121 289 333 1555 1351 1520 1289 1717 1465 1067 1237 1778 1857 1515 1989 1261
0 0 0 0 0 0 0 0 0 0 0 0 0 140 167 113 70 44 5 0 0 0 0 0 0 6 45 29 86 160 219 617 1023 1280 1595 1541 1770 1587 1110 1205 1545 1775 1413 1676
0 0 0 0 0 0 0 0 0 0 0 0 0 31 51 51 47 3 0 0 0 0 0 0 0 0 0 0 0 0 95 144 615 1488 1837 1557 1649 1917 1798 1534 1213 1386 1780 1680
0 0 0 0 0 0 0 0 0 0 0 0 0 0 2 0 0 0 0 0 0 0 0 0 0 0 0 0 0 0 0 0 273 925 1814 1977 1800 1840 2107 2017 1731 1356 1769 1875
0 0 0 0 0 0 0 0 0 0 0 0 0 0 20 4 0 0 0 0 0 0 0 0 1 0 0 0 0 0 0 0 0 279 776 1837 2155 1989 2017 2097 2150 1876 1376 1672
0 0 0 0 0 0 0 0 0 0 0 0 0 0 0 0 0 0 0 0 0 0 0 0 0 0 0 0 0 0 0 0 0 0 470 877 1613 1816 1741 1984 2006 2165 2046 1469
0 0 0 0 0 0 0 0 0 0 0 0 0 0 0 0 0 0 0 0 0 0 0 0 0 0 0 0 0 0 0 0 0 0 0 412 889 1283 1511 1711 1988 1903 2175 1909
0 0 0 0 0 0 0 0 0 0 0 0 0 0 0 0 0 0 0 0 0 0 0 0 0 0 0 0 0 0 0 0 0 0 0 0 288 873 1247 1396 1840 1786 1744 1776
0 0 0 0 0 0 0 0 0 0 0 0 0 0 0 0 0 0 0 0 0 0 0 0 0 0 0 0 2 0 0 0 0 0 0 0 0 280 912 1186 1329 1601 1497 843
0 0 0 0 0 0 0 0 0 0 0 0 0 0 0 0 0 0 0 0 0 0 0 0 0 0 0 0 0 0 0 0 0 0 0 0 29 234 713 882 920 1106 1334 1187
0 0 0 0 0 0 0 0 0 0 0 0 0 0 0 0 0 0 0 0 0 0 0 0 0 0 2 3 56 9 0 0 0 0 0 0 0 0 400 697 941 1057 1126 1085
0 0 0 0 0 20 1 0 0 0 0 0 0 0 0 0 0 0 0 0 0 0 0 0 0 1 20 4 5 3 0 0 0 0 0 0 0 3 84 415 900 1195 1056 1127
0 0 0 0 0 21 0 0 0 0 0 0 1 0 0 0 0 0 0 0 0 0 0 0 0 0 2 1 16 0 1 0 0 0 0 0 0 5 57 443 876 1224 1111 860
0 0 0 0 0 14 10 111 54 28 30 22 0 0 0 0 0 0 0 0 0 0 0 2 0 4 45 4 0 0 0 0 0 0 0 0 0 0 159 701 1031 1112 1075 907
11 10 0 1 12 0 1 21 94 60 59 0 0 0 0 0 0 0 0 0 0 0 0 0 4 1 0 0 0 0 0 0 0 0 0 0 0 133 789 894 1298 1271 1104 1078
0 8 25 19 0 0 14 6 373 225 156 0 0 0 0 0 0 0 0 0 0 0 0 0 0 0 0 0 0 0 0 0 2 0 0 0 121 277 491 790 933 980 934 947
13 132 85 73 20 14 136 103 242 315 24 4 0 0 0 0 0 0 0 0 0 0 0 0 0 0 0 4 7 7 6 4 5 61 6 47 289 361 352 556 671 911 964 867
CIN
0 0 0 -1 -4 -108 -1 -1 -6 -34 -1 -1 -81 -22 -19 -40 -44 -63 -52 -77 0 0 0 0 0 0 -27 -87 -114 -94 -121 -97 -107 -77 -21 -36 -24 -69 -71 -71 -82 -88 -82 -68
0 0 0 -3 -4 0 -3 -20 -1 0 0 0 -3 -1 -25 -29 -43 -34 -59 -37 -103 -68 0 0 0 0 -27 -164 -88 -148 -55 -86 -77 -208 -80 -25 -32 -75 -147 -108 -42 -101 -76 -50
0 0 0 0 0 0 0 -1 0 0 0 0 0 0 -45 -46 -28 -27 -34 -11 -13 -85 0 0 0 0 0 -162 -171 -90 -59 -91 -35 -97 -149 -77 -48 -68 -53 -44 -59 -85 -59 -115
0 0 0 0 0 0 0 0 0 0 0 0 0 0 -9 -69 -48 -43 -22 -23 -15 -16 -118 -118 -56 -3 0 -164 -161 -109 -66 -68 -48 -30 -71 -89 -64 -59 -46 -56 -63 -67 -90 -59
0 0 0 0 0 0 0 0 0 0 0 0 0 0 0 -58 -49 -43 -17 -80 -33 -21 -217 -153 -126 -102 -55 -208 -191 -166 -88 -55 -83 -54 -27 -58 -24 -66 -50 -50 -55 -58 -74 -104
0 0 0 0 0 0 0 0 0 0 0 0 0 0 0 -38 -68 -144 -160 -78 -217 -215 -272 -84 -46 -122 -51 -55 -190 -179 -151 -108 -99 -124 -83 -27 -23 -31 -33 -35 -65 -72 -105 -80
0 0 0 0 0 0 0 0 0 0 0 0 0 0 -21 -70 -33 -21 -16 -205 -154 -206 -126 -249 -37 -234 -152 -65 -28 -127 -179 -135 -152 -132 -123 -83 -52 -30 -16 -21 -12 -35 -67 -97
0 0 0 0 0 0 0 0 0 0 0 0 0 -31 -37 -88 -97 -147 -171 -164 -73 -111 -279 -20 -15 -182 -184 -135 -118 -19 -72 -135 -130 -139 -157 -172 -78 -39 -28 -40 -48 -11 -43 -78
0 0 0 0 0 0 0 0 0 0 0 0 -27 -58 -46 -35 -29 -39 -56 -5 0 -37 -9 -3 -55 -87 -114 -112 -17 -3 -35 -40 -80 -147 -139 -149 -146 -111 -50 -19 -36 -33 -10 -32
0 0 0 0 0 0 0 0 0 0 0 0 -12 -45 -44 -41 -35 -36 -34 -47 -57 -50 -21 -24 -13 -11 -32 -33 -117 -54 -102 -9 -21 -23 -58 -89 -156 -145 -134 -60 -28 -39 -21 -5
0 0 0 0 0 0 0 0 0 0 0 0 0 -11 -26 -32 -42 -44 -75 0 0 0 0 0 0 -335 -318 -322 -74 -157 -111 -8 -10 -76 -70 -147 -82 -143 -154 -137 -89 -41 -46 -21
0 0 0 0 0 0 0 0 0 0 0 0 0 -14 -16 -12 -20 -44 0 0 0 0 0 0 0 0 0 0 0 -21 -253 -137 -47 -72 -83 -106 -97 -97 -126 -133 -131 -100 -42 -44
0 0 0 0 0 0 0 0 0 0 0 0 0 0 -17 0 0 0 0 0 0 0 0 0 0 0 0 0 0 0 0 0 -57 -57 -18 -10 -14 -57 -99 -123 -131 -124 -70 -33
0 0 0 0 0 0 0 0 0 0 0 0 0 0 -24 -34 0 0 0 0 0 0 0 0 -149 0 0 0 0 0 0 0 0 -103 -45 -5 0 -18 -52 -87 -103 -115 -122 -75
0 0 0 0 0 0 0 0 0 0 0 0 0 0 0 0 0 0 0 0 0 0 0 0 0 0 0 0 0 0 0 0 0 0 -16 -42 -3 0 -23 -16 -50 -64 -77 -87
0 0 0 0 0 0 0 0 0 0 0 0 0 0 0 0 0 0 0 0 0 0 0 0 0 0 0 0 0 0 0 0 0 0 0 -12 -21 -13 -19 -22 -18 -31 -53 -73
0 0 0 0 0 0 0 0 0 0 0 0 0 0 0 0 0 0 0 0 0 0 0 0 0 0 0 0 0 0 0 0 0 0 0 0 -66 -9 -10 -51 -21 -19 -11 -30
0 0 0 0 0 0 0 0 0 0 0 0 0 0 0 0 0 0 0 0 0 0 0 0 0 0 0 0 -14 0 0 0 0 0 0 0 0 -105 -38 -31 -67 -13 -36 -7
0 0 0 0 0 0 0 0 0 0 0 0 0 0 0 0 0 0 0 0 0 0 0 0 0 0 0 0 0 0 0 0 0 0 0 0 -155 -88 -22 -26 -48 -72 -7 -16
0 0 0 0 0 0 0 0 0 0 0 0 0 0 0 0 0 0 0 0 0 0 0 0 0 0 -5 -2 -53 -14 0 0 0 0 0 0 0 0 -43 -17 -3 -28 -23 -23
0 0 0 0 0 -32 -14 0 0 0 0 0 0 0 0 0 0 0 0 0 0 0 0 0 0 -13 -14 -9 -13 -13 0 0 0 0 0 0 0 -1 -189 -32 -12 -1 -21 -14
0 0 0 0 0 -23 0 0 0 0 0 0 -85 0 0 0 0 0 0 0 0 0 0 0 0 0 -40 -4 -19 0 -8 0 0 0 0 0 0 0 -234 -36 -7 0 -9 -21
0 0 0 0 0 -97 -15 -67 -86 -87 -109 -149 0 0 0 0 0 0 0 0 0 0 0 0 0 -5 -13 -7 0 0 0 0 0 0 0 0 0 0 -110 -7 -2 -8 -31 -33
-22 -49 0 -3 -61 0 -95 -176 -116 -107 -123 0 0 0 0 0 0 0 0 0 0 0 0 0 0 0 0 0 0 0 0 0 0 0 0 0 0 -98 -1 0 -1 -2 -23 -9
0 -49 -26 -27 0 0 -211 -102 -102 -105 -90 0 0 0 0 0 0 0 0 0 0 0 0 0 0 0 0 0 0 0 0 0 0 0 0 0 -105 -35 -3 0 0 -4 -23 -11
-34 -33 -35 -39 -158 -173 -83 -26 -30 -50 -34 -7 0 0 0 0 0 0 0 0 0 0 0 0 0 0 0 0 -2 0 0 0 0 -68 -21 -94 -8 -16 -15 -1 -1 0 0 0
Wind_Speed
nan nan nan nan nan nan nan nan nan 18 nan nan 15 12 20 19 16 22 24 nan nan nan nan nan nan nan nan 15 nan 9 nan 9 7 7 8 9 8 10 16 13 6 3 4 2
nan nan nan nan nan nan nan nan nan nan nan nan nan nan 19 21 17 20 22 23 nan nan nan nan nan nan nan nan 13 8 11 9 7 nan 8 9 8 6 12 17 10 7 5 4
nan nan nan nan nan nan nan nan nan nan nan nan nan nan nan 22 13 16 15 20 21 nan nan nan nan nan nan nan nan 12 9 8 7 10 nan 9 11 10 12 18 15 9 8 7
nan nan nan nan nan nan nan nan nan nan nan nan nan nan nan 23 20 19 20 19 24 24 nan nan nan nan nan 16 16 13 13 11 8 7 9 9 10 11 13 18 16 11 9 9
nan nan nan nan nan nan nan nan nan nan nan nan nan nan nan 30 18 16 30 36 19 27 32 nan nan nan nan nan 17 15 14 15 12 7 9 10 11 12 17 18 17 13 11 9
nan nan nan nan nan nan nan nan nan nan nan nan nan nan nan 23 25 25 29 29 33 22 36 22 26 23 14 7 14 13 14 15 14 11 10 7 9 10 14 16 18 13 13 10
nan nan nan nan nan nan nan nan nan nan nan nan nan nan 6 31 38 43 35 37 22 42 42 nan nan 11 12 24 1 14 15 12 15 15 12 13 11 8 12 14 15 18 16 13
nan nan nan nan nan nan nan nan nan nan nan nan nan nan 19 35 42 46 47 46 47 45 nan 32 34 33 22 22 16 13 14 11 10 13 12 12 14 14 13 13 18 20 18 16
nan nan nan nan nan nan nan nan nan nan nan nan nan 16 26 30 39 nan nan nan nan nan nan nan 49 40 34 29 21 33 27 6 11 14 15 14 15 15 14 19 18 21 21 20
nan nan nan nan nan nan nan nan nan nan nan nan nan nan 15 29 42 nan nan nan nan nan nan nan 52 nan nan nan 34 35 36 23 17 18 13 17 19 17 17 18 21 21 21 23
nan nan nan nan nan nan nan nan nan nan nan nan nan 2 19 29 nan nan nan nan nan nan nan nan nan nan nan nan nan 41 42 33 25 12 20 22 21 22 20 19 19 22 23 26
nan nan nan nan nan nan nan nan nan nan nan nan nan nan nan nan nan nan nan nan nan nan nan nan nan nan nan nan nan nan nan 44 37 33 20 22 21 26 25 24 20 24 24 26
nan nan nan nan nan nan nan nan nan nan nan nan nan nan nan nan nan nan nan nan nan nan nan nan nan nan nan nan nan nan nan nan 46 38 36 23 24 24 24 25 26 26 28 26
nan nan nan nan nan nan nan nan nan nan nan nan nan nan nan nan nan nan nan nan nan nan nan nan nan nan nan nan nan nan nan nan nan 45 40 37 27 26 24 24 27 28 27 30
nan nan nan nan nan nan nan nan nan nan nan nan nan nan nan nan nan nan nan nan nan nan nan nan nan nan nan nan nan nan nan nan nan nan 39 39 38 35 26 23 24 28 30 27
nan nan nan nan nan nan nan nan nan nan nan nan nan nan nan nan nan nan nan nan nan nan nan nan nan nan nan nan nan nan nan nan nan nan nan 37 38 39 38 31 27 27 30 32
nan nan nan nan nan nan nan nan nan nan nan nan nan nan nan nan nan nan nan nan nan nan nan nan nan nan nan nan nan nan nan nan nan nan nan nan 38 37 39 40 32 28 31 28
nan nan nan nan nan nan nan nan nan nan nan nan nan nan nan nan nan nan nan nan nan nan nan nan nan nan nan nan nan nan nan nan nan nan nan nan nan 38 37 38 40 38 42 23
nan nan nan nan nan nan nan nan nan nan nan nan nan nan nan nan nan nan nan nan nan nan nan nan nan nan nan nan nan nan nan nan nan nan nan nan nan 41 36 34 35 43 46 44
nan nan nan nan nan nan nan nan nan nan nan nan nan nan nan nan nan nan nan nan nan nan nan nan nan nan nan nan nan nan nan nan nan nan nan nan nan nan 39 36 31 36 49 52
nan nan nan nan nan nan nan nan nan nan nan nan nan nan nan nan nan nan nan nan nan nan nan nan nan nan nan nan nan nan nan nan nan nan nan nan nan nan nan 36 34 34 40 51
nan nan nan nan nan nan nan nan nan nan nan nan nan nan nan nan nan nan nan nan nan nan nan nan nan nan nan nan nan nan nan nan nan nan nan nan nan nan nan 37 37 39 43 42
nan nan nan nan nan nan nan 46 nan nan nan nan nan nan nan nan nan nan nan nan nan nan nan nan nan nan nan nan nan nan nan nan nan nan nan nan nan nan 41 41 37 42 43 42
nan nan nan nan nan nan nan nan nan nan nan nan nan nan nan nan nan nan nan nan nan nan nan nan nan nan nan nan nan nan nan nan nan nan nan nan nan 41 44 46 47 43 44 46
nan nan nan nan nan nan nan nan 34 38 44 nan nan nan nan nan nan nan nan nan nan nan nan nan nan nan nan nan nan nan nan nan nan nan nan nan 45 49 51 49 48 50 48 44
nan 22 nan nan nan nan 35 47 48 50 nan nan nan nan nan nan nan nan nan nan nan nan nan nan nan nan nan nan nan nan nan nan nan nan nan nan 51 52 51 48 51 61 56 54
Wind_Direction
nan nan nan nan nan nan nan nan nan 333 nan nan 349 2 355 355 7 357 6 nan nan nan nan nan nan nan nan 330 nan 282 nan 311 277 235 227 214 198 212 198 223 236 247 230 190
nan nan nan nan nan nan nan nan nan nan nan nan nan nan 352 352 353 0 2 354 nan nan nan nan nan nan nan nan 323 307 273 301 272 nan 233 235 240 224 216 216 252 263 258 259
nan nan nan nan nan nan nan nan nan nan nan nan nan nan nan 5 315 321 342 336 339 nan nan nan nan nan nan nan nan 320 291 311 283 281 nan 226 236 231 224 216 228 239 258 262
nan nan nan nan nan nan nan nan nan nan nan nan nan nan nan 332 333 335 314 327 330 311 nan nan nan nan nan 336 338 339 316 307 290 289 282 263 246 260 236 216 240 239 254 256
nan nan nan nan nan nan nan nan nan nan nan nan nan nan nan 316 315 319 261 280 252 277 256 nan nan nan nan nan 331 338 327 320 323 281 273 283 272 242 236 226 233 239 244 260
nan nan nan nan nan nan nan nan nan nan nan nan nan nan nan 304 288 283 296 245 249 252 252 226 204 181 188 314 314 312 324 331 327 321 305 285 295 275 245 225 229 240 231 243
nan nan nan nan nan nan nan nan nan nan nan nan nan nan 235 267 274 283 283 273 279 298 277 nan nan 321 295 210 134 318 313 319 324 325 318 305 296 283 266 239 226 243 249 243
nan nan nan nan nan nan nan nan nan nan nan nan nan nan 230 272 273 275 280 283 284 291 nan 303 296 304 310 263 171 244 279 294 296 304 308 304 295 276 267 255 239 236 247 258
nan nan nan nan nan nan nan nan nan nan nan nan nan 214 234 251 261 nan nan nan nan nan nan nan 302 298 302 304 313 273 228 54 313 298 285 284 286 292 273 270 257 247 249 247
nan nan nan nan nan nan nan nan nan nan nan nan nan nan 265 260 256 nan nan nan nan nan nan nan 282 nan nan nan 278 272 262 244 252 273 275 275 283 283 288 270 272 264 251 259
nan nan nan nan nan nan nan nan nan nan nan nan nan 288 267 269 nan nan nan nan nan nan nan nan nan nan nan nan nan 266 265 253 228 236 303 295 284 283 274 277 273 270 267 258
nan nan nan nan nan nan nan nan nan nan nan nan nan nan nan nan nan nan nan nan nan nan nan nan nan nan nan nan nan nan nan 257 240 229 274 297 288 284 285 279 273 268 269 269
nan nan nan nan nan nan nan nan nan nan nan nan nan nan nan nan nan nan nan nan nan nan nan nan nan nan nan nan nan nan nan nan 257 236 230 257 281 288 285 287 286 279 269 268
nan nan nan nan nan nan nan nan nan nan nan nan nan nan nan nan nan nan nan nan nan nan nan nan nan nan nan nan nan nan nan nan nan 256 234 228 252 271 282 287 282 287 284 277
nan nan nan nan nan nan nan nan nan nan nan nan nan nan nan nan nan nan nan nan nan nan nan nan nan nan nan nan nan nan nan nan nan nan 250 238 229 239 248 258 277 281 285 286
nan nan nan nan nan nan nan nan nan nan nan nan nan nan nan nan nan nan nan nan nan nan nan nan nan nan nan nan nan nan nan nan nan nan nan 249 240 231 238 240 265 269 280 282
nan nan nan nan nan nan nan nan nan nan nan nan nan nan nan nan nan nan nan nan nan nan nan nan nan nan nan nan nan nan nan nan nan nan nan nan 246 239 232 228 240 262 262 261
nan nan nan nan nan nan nan nan nan nan nan nan nan nan nan nan nan nan nan nan nan nan nan nan nan nan nan nan nan nan nan nan nan nan nan nan nan 244 238 234 228 238 253 265
nan nan nan nan nan nan nan nan nan nan nan nan nan nan nan nan nan nan nan nan nan nan nan nan nan nan nan nan nan nan nan nan nan nan nan nan nan 242 242 237 235 236 253 252
nan nan nan nan nan nan nan nan nan nan nan nan nan nan nan nan nan nan nan nan nan nan nan nan nan nan nan nan nan nan nan nan nan nan nan nan nan nan 238 239 239 245 245 246
nan nan nan nan nan nan nan nan nan nan nan nan nan nan nan nan nan nan nan nan nan nan nan nan nan nan nan nan nan nan nan nan nan nan nan nan nan nan nan 239 242 253 254 252
nan nan nan nan nan nan nan nan nan nan nan nan nan nan nan nan nan nan nan nan nan nan nan nan nan nan nan nan nan nan nan nan nan nan nan nan nan nan nan 243 246 258 260 259
nan nan nan nan nan nan nan 284 nan nan nan nan nan nan nan nan nan nan nan nan nan nan nan nan nan nan nan nan nan nan nan nan nan nan nan nan nan nan 235 242 246 255 262 262
nan nan nan nan nan nan nan nan nan nan nan nan nan nan nan nan nan nan nan nan nan nan nan nan nan nan nan nan nan nan nan nan nan nan nan nan nan 232 244 243 244 250 257 263
nan nan nan nan nan nan nan nan 301 297 285 nan nan nan nan nan nan nan nan nan nan nan nan nan nan nan nan nan nan nan nan nan nan nan nan nan 232 237 243 245 242 249 248 252
nan 296 nan nan nan nan 316 312 308 297 nan nan nan nan nan nan nan nan nan nan nan nan nan nan nan nan nan nan nan nan nan nan nan nan nan nan 234 240 243 244 249 244 250 250